FW0014 Weather Reports


time (UTC)temp
F
wind
direction
speed
knots
gust
knots
rain 1hr
in
rain 24hr
in
rain mn
in
humidity
%
barometer
mb
20260506132556 60 15 7.0 12.2 0.00 0.01 0.01 87 1010.4
20260506132340 60 27 7.0 10.4 0.00 0.01 0.01 87 1012.8
20260506132027 60 29 5.2 12.2 0.00 0.01 0.01 87 1010.6
20260506131834 61 8 4.3 12.2 0.00 0.01 0.01 87 1012.8
20260506131515 60 37 7.0 12.2 0.00 0.01 0.01 87 1010.5
20260506131328 61 37 7.0 12.2 0.00 0.01 0.01 87 1012.6
20260506131005 60 4 6.1 12.2 0.00 0.01 0.01 87 1010.5
20260506130824 61 10 7.0 12.2 0.00 0.01 0.01 87 1012.7
20260506130557 60 16 6.1 10.4 0.00 0.01 0.01 87 1010.5
20260506130320 61 359 4.3 10.4 0.00 0.01 0.01 88 1012.8
20260506130053 61 4 4.3 10.4 0.00 0.01 0.01 87 1010.5
20260506125816 61 8 4.3 7.8 0.00 0.01 0.01 88 1012.5
20260506125542 61 33 2.6 7.8 0.00 0.01 0.01 87 1010.2
20260506125332 61 50 4.3 7.8 0.01 0.01 0.01 87 1012.5
20260506125037 61 41 3.5 7.8 0.01 0.01 0.01 88 1010.3
20260506124829 62 42 3.5 7.8 0.01 0.01 0.01 88 1012.6
20260506124529 61 14 2.6 7.0 0.01 0.01 0.01 87 1010.2
20260506124325 62 31 2.6 8.7 0.01 0.01 0.01 87 1012.4
20260506124022 61 26 3.5 8.7 0.01 0.01 0.01 87 1010.1
20260506123821 62 62 4.3 8.7 0.01 0.01 0.01 87 1012.2
20260506123515 62 34 1.7 8.7 0.01 0.01 0.01 87 1009.8
20260506123318 62 54 2.6 7.8 0.01 0.01 0.01 87 1012.1
20260506123059 62 34 3.5 8.7 0.01 0.01 0.01 87 1009.8
20260506122816 62 47 4.3 8.7 0.01 0.01 0.01 86 1012.2
20260506122550 62 31 3.5 8.7 0.01 0.01 0.01 87 1009.8
20260506122333 62 32 3.5 7.8 0.01 0.01 0.01 87 1012.1
20260506122042 62 14 3.5 7.8 0.01 0.01 0.01 87 1009.8
20260506121828 62 4 3.5 7.8 0.01 0.01 0.01 87 1012.0
20260506121536 62 4 3.5 7.8 0.01 0.01 0.01 87 1009.7
20260506121340 63 359 4.3 7.8 0.01 0.01 0.01 87 1011.9
20260506121101 62 4 2.6 5.2 0.01 0.01 0.01 87 1009.6
20260506120816 63 16 3.5 7.8 0.01 0.01 0.01 87 1011.9
20260506120555 62 8 2.6 8.7 0.01 0.01 0.01 87 1009.4
20260506120331 63 4 2.6 8.7 0.01 0.01 0.01 87 1011.8
20260506120050 63 39 4.3 8.7 0.01 0.01 0.01 86 1009.3
20260506115826 63 59 5.2 7.8 0.01 0.01 0.01 87 1011.7
20260506115536 63 40 3.5 7.8 0.00 0.00 0.00 87 1009.2
20260506115320 64 41 4.3 7.8 0.00 0.00 0.00 87 1011.6
20260506115028 64 9 4.3 7.8 0.00 0.00 0.00 87 1009.2
20260506114816 64 11 2.6 5.2 0.00 0.00 0.00 87 1011.5
20260506114524 64 18 2.6 5.2 0.00 0.00 0.00 87 1009.1
20260506114331 65 4 2.6 4.3 0.00 0.00 0.00 88 1011.4
20260506114008 64 24 2.6 6.1 0.00 0.00 0.00 87 1009.2
20260506113827 65 359 2.6 6.1 0.00 0.00 0.00 87 1011.6
20260506113604 64 31 1.7 6.1 0.00 0.00 0.00 87 1009.2
20260506113321 65 25 3.5 6.1 0.00 0.00 0.00 86 1011.5
20260506113033 65 18 1.7 4.3 0.00 0.00 0.00 86 1009.1
20260506112818 66 34 2.6 5.2 0.00 0.00 0.00 86 1011.4
20260506112524 65 66 2.6 5.2 0.00 0.00 0.00 86 1009.1
20260506112314 66 73 1.7 5.2 0.00 0.00 0.00 86 1011.4
20260506112010 66 72 2.6 6.1 0.00 0.00 0.00 86 1008.9
20260506111829 66 48 1.7 3.5 0.00 0.00 0.00 87 1011.3
20260506111544 66 27 0.9 3.5 0.00 0.00 0.00 87 1009.1
20260506111325 66 27 0.9 5.2 0.00 0.00 0.00 87 1011.3
20260506111038 66 28 0.9 5.2 0.00 0.00 0.00 86 1009.0
20260506110842 66 28 1.7 5.2 0.00 0.00 0.00 86 1011.4
20260506110606 66 4 2.6 4.3 0.00 0.00 0.00 86 1009.0
20260506110317 67 4 2.6 4.3 0.00 0.00 0.00 86 1011.4
20260506110051 66 359 1.7 4.3 0.00 0.00 0.00 86 1009.0
20260506105814 67 359 2.6 4.3 0.00 0.00 0.00 86 1011.3
20260506105549 66 8 2.6 5.2 0.00 0.00 0.00 86 1009.0
20260506105330 67 4 3.5 5.2 0.00 0.00 0.00 86 1011.3
20260506105037 67 359 1.7 5.2 0.00 0.00 0.00 86 1008.8
20260506104827 67 359 2.6 5.2 0.00 0.00 0.00 86 1011.1
20260506104526 67 8 2.6 5.2 0.00 0.00 0.00 85 1008.7
20260506104323 67 337 2.6 5.2 0.00 0.00 0.00 85 1011.1
20260506104008 67 29 2.6 7.0 0.00 0.00 0.00 86 1008.8
20260506103819 68 359 1.7 7.0 0.00 0.00 0.00 86 1011.2
20260506103600 67 346 2.6 7.8 0.00 0.00 0.00 86 1008.8
20260506103315 68 18 3.5 7.8 0.00 0.00 0.00 85 1011.1
20260506103055 68 359 1.7 7.8 0.00 0.00 0.00 86 1008.7
20260506102830 69 348 4.3 7.8 0.00 0.00 0.00 85 1011.2
20260506102546 69 4 3.5 7.8 0.00 0.00 0.00 85 1008.7
20260506102327 70 354 5.2 7.8 0.00 0.00 0.00 85 1011.1
20260506102039 70 354 0.0 0.0 0.00 0.00 0.00 85 1008.6
20260506101822 72 359 0.0 0.0 0.00 0.00 0.00 86 1010.9
20260506101530 72 348 0.0 0.0 0.00 0.00 0.00 86 1008.4
20260506101318 73 329 0.0 0.0 0.00 0.00 0.00 88 1010.8
20260506101022 73 166 0.0 0.0 0.00 0.00 0.00 89 1008.4
20260506100814 74 166 0.0 0.0 0.00 0.00 0.00 89 1010.8
20260506100506 73 167 0.0 0.0 0.00 0.00 0.00 89 1008.3
20260506100331 74 166 0.0 0.0 0.00 0.00 0.00 89 1010.6
20260506100101 73 166 0.0 0.0 0.00 0.00 0.00 89 1008.2
20260506095827 74 141 0.0 0.0 0.00 0.00 0.00 89 1010.7
20260506095550 73 172 0.0 0.0 0.00 0.00 0.00 89 1008.1
20260506095342 74 161 0.0 0.0 0.00 0.00 0.00 89 1010.4
20260506095021 73 162 0.0 0.0 0.00 0.00 0.00 89 1008.0
20260506094816 74 144 0.0 0.0 0.00 0.00 0.00 89 1010.4
20260506094505 73 180 0.0 0.0 0.00 0.00 0.00 89 1008.0
20260506094333 74 181 0.0 0.0 0.00 0.00 0.00 89 1010.4
20260506094058 74 161 0.0 0.0 0.00 0.00 0.00 89 1008.0
20260506093827 74 160 0.0 0.0 0.00 0.00 0.00 89 1010.3
20260506093552 74 158 0.0 0.0 0.00 0.00 0.00 88 1007.8
20260506093323 74 162 0.0 0.0 0.00 0.00 0.00 88 1010.2
20260506093104 74 149 0.0 0.0 0.00 0.00 0.00 88 1007.8
20260506092818 74 149 0.0 0.0 0.00 0.00 0.00 88 1010.2
20260506092536 74 149 0.0 0.0 0.00 0.00 0.00 88 1007.8
20260506092314 74 149 0.0 0.0 0.00 0.00 0.00 88 1010.3
20260506092030 74 149 0.0 0.0 0.00 0.00 0.00 88 1007.9
20260506091832 74 149 0.0 0.0 0.00 0.00 0.00 88 1010.3
20260506091515 74 148 0.0 0.0 0.00 0.00 0.00 88 1007.8
20260506091322 74 149 0.0 0.0 0.00 0.00 0.00 88 1010.3
20260506091042 74 148 0.0 0.0 0.00 0.00 0.00 88 1007.8
20260506090818 75 149 0.0 0.0 0.00 0.00 0.00 88 1010.2
20260506090536 74 149 0.0 0.0 0.00 0.00 0.00 88 1007.8
20260506090333 75 149 0.0 0.0 0.00 0.00 0.00 88 1010.2
20260506090117 74 148 0.0 0.0 0.00 0.00 0.00 88 1007.7
20260506085828 75 149 0.0 0.0 0.00 0.00 0.00 88 1010.1
20260506085552 74 148 0.0 0.0 0.00 0.00 0.00 88 1007.6
20260506085326 75 149 0.0 0.0 0.00 0.00 0.00 88 1010.1
20260506085048 74 149 0.0 0.0 0.00 0.00 0.00 88 1007.7
20260506084822 75 148 0.0 0.0 0.00 0.00 0.00 88 1010.0
20260506084543 74 148 0.0 0.0 0.00 0.00 0.00 88 1007.6
20260506084316 75 149 0.0 0.0 0.00 0.00 0.00 88 1010.0
20260506084017 74 149 0.0 0.0 0.00 0.00 0.00 88 1007.6
20260506083832 75 149 0.0 0.0 0.00 0.00 0.00 88 1010.1
20260506083600 74 149 0.0 0.0 0.00 0.00 0.00 88 1007.7
20260506083329 75 149 0.0 0.0 0.00 0.00 0.00 88 1010.0
20260506083049 74 149 0.0 0.0 0.00 0.00 0.00 88 1007.5
20260506082825 75 149 0.0 0.0 0.00 0.00 0.00 88 1009.9
20260506082540 74 149 0.0 0.0 0.00 0.00 0.00 88 1007.5
20260506082322 75 135 0.0 0.0 0.00 0.00 0.00 88 1009.9
20260506082034 74 181 0.0 0.0 0.00 0.00 0.00 88 1007.5
20260506081838 75 181 0.0 0.0 0.00 0.00 0.00 88 1010.0
20260506081556 74 181 0.0 0.0 0.00 0.00 0.00 88 1007.5
20260506081333 75 181 0.0 0.0 0.00 0.00 0.00 88 1010.0
20260506081046 74 181 0.0 0.0 0.00 0.00 0.00 88 1007.5
20260506080848 75 181 0.0 0.0 0.00 0.00 0.00 88 1010.0
20260506080512 74 181 0.0 0.0 0.00 0.00 0.00 88 1007.6
20260506080345 75 181 0.0 0.0 0.00 0.00 0.00 88 1010.0
20260506073526 74 181 0.0 0.0 0.00 0.00 0.00 88 1007.7
20260506073317 75 181 0.0 0.0 0.00 0.00 0.00 88 1010.2
20260506073011 74 181 0.0 0.0 0.00 0.00 0.00 88 1007.8
20260506072833 75 181 0.0 0.0 0.00 0.00 0.00 88 1010.3
20260506072503 74 181 0.0 0.0 0.00 0.00 0.00 88 1007.9
20260506072330 75 181 0.0 0.0 0.00 0.00 0.00 87 1010.3
20260506072058 74 181 0.0 0.0 0.00 0.00 0.00 87 1007.8
20260506071827 75 181 0.0 0.0 0.00 0.00 0.00 87 1010.3
20260506071550 75 181 0.0 0.0 0.00 0.00 0.00 87 1008.0
20260506071340 75 181 0.0 0.0 0.00 0.00 0.00 87 1010.4
20260506071020 75 181 0.0 0.0 0.00 0.00 0.00 87 1008.0
20260506070834 75 181 0.0 0.0 0.00 0.00 0.00 87 1010.3
20260506070506 75 181 0.0 0.0 0.00 0.00 0.00 87 1008.0
20260506070330 75 181 0.0 0.0 0.00 0.00 0.00 87 1010.4
20260506062503 75 224 0.0 0.0 0.00 0.00 0.00 87 1007.9
20260506062341 75 225 0.0 0.0 0.00 0.00 0.00 87 1010.3
20260506062034 75 224 0.0 0.0 0.00 0.00 0.00 87 1007.9
20260506061816 75 225 0.0 0.0 0.00 0.00 0.00 87 1010.2
20260506061528 75 225 0.0 0.0 0.00 0.00 0.00 86 1007.9
20260506061331 75 225 0.0 0.0 0.00 0.00 0.00 87 1010.2
20260506061014 75 225 0.0 0.0 0.00 0.00 0.00 86 1007.7
20260506060828 75 225 0.0 0.0 0.00 0.00 0.00 86 1010.1
20260506060510 75 225 0.0 0.0 0.00 0.00 0.00 86 1007.8
20260506060323 75 225 0.0 0.0 0.00 0.00 0.00 86 1010.2
20260506060105 75 226 0.0 0.0 0.00 0.00 0.00 86 1007.7
20260506051348 76 189 0.0 0.0 0.00 0.00 0.00 85 1009.4
20260506051100 75 199 0.0 0.0 0.00 0.00 0.00 85 1006.9
20260506050823 76 205 0.0 0.0 0.00 0.00 0.00 85 1009.4
20260506050554 75 185 0.0 0.0 0.00 0.00 0.00 85 1007.1
20260506050319 76 184 0.0 0.0 0.00 0.00 0.00 85 1009.4
20260506045016 75 204 0.0 0.0 0.00 0.00 0.00 84 1007.1
20260506044816 76 199 0.0 0.0 0.00 0.00 0.00 84 1009.4
20260506044608 76 171 0.0 0.0 0.00 0.00 0.00 84 1007.2
20260506044333 76 185 0.0 0.0 0.00 0.00 0.00 84 1009.4
20260506044048 76 206 0.0 0.0 0.00 0.00 0.00 84 1007.1
20260506043827 76 164 0.0 0.0 0.00 0.00 0.00 84 1009.4
20260506043522 76 152 0.0 0.0 0.00 0.00 0.00 83 1006.9
20260506043324 76 196 0.0 0.0 0.00 0.00 0.00 84 1009.3
20260506043019 76 213 0.0 0.0 0.00 0.00 0.00 83 1007.0
20260506042840 76 187 0.0 0.0 0.00 0.00 0.00 83 1009.2
20260506042544 76 179 0.0 0.0 0.00 0.00 0.00 83 1007.1
20260506042316 76 188 0.0 0.0 0.00 0.00 0.00 83 1009.3
20260506042035 76 154 0.0 0.0 0.00 0.00 0.00 83 1006.9
20260506041832 76 170 0.0 0.0 0.00 0.00 0.00 83 1009.2
20260506041530 76 208 0.0 0.0 0.00 0.00 0.00 83 1006.9
20260506041329 76 174 0.0 0.0 0.00 0.00 0.00 83 1009.2
20260506041024 76 193 0.0 0.0 0.00 0.00 0.00 83 1006.7
20260506040824 76 136 0.0 0.0 0.00 0.00 0.00 83 1009.1
20260506040520 76 175 0.0 0.0 0.00 0.00 0.00 83 1006.8
20260506040338 76 180 0.0 0.0 0.00 0.00 0.00 83 1009.0
20260506040040 76 171 0.0 0.0 0.00 0.00 0.00 83 1006.8
20260506035813 76 168 0.0 0.0 0.00 0.00 0.00 83 1009.2
20260506035534 75 181 0.0 0.0 0.00 0.00 0.00 83 1006.7
20260506035330 76 189 0.0 0.0 0.00 0.00 0.00 83 1009.1
20260506035028 75 168 0.0 0.0 0.00 0.00 0.00 83 1006.7
20260506034825 76 183 0.0 0.0 0.00 0.00 0.00 83 1009.0
20260506034524 75 164 0.0 0.0 0.00 0.00 0.00 83 1006.7
20260506034339 76 217 0.0 0.0 0.00 0.00 0.00 83 1009.1
20260506034044 75 198 0.0 0.0 0.00 0.00 0.00 83 1006.6
20260506033814 75 163 0.0 0.0 0.00 0.00 0.00 83 1008.9
20260506033538 75 188 0.0 0.0 0.00 0.00 0.00 83 1006.5
20260506033331 75 193 0.0 0.0 0.00 0.00 0.00 83 1008.8
20260506033034 75 180 0.0 0.0 0.00 0.00 0.00 83 1006.4
20260506032827 75 195 0.0 0.0 0.00 0.00 0.00 83 1008.8
20260506032525 75 161 0.0 0.0 0.00 0.00 0.00 83 1006.5
20260506032323 75 176 0.0 0.0 0.00 0.00 0.00 83 1008.9
20260506032011 75 164 0.0 0.0 0.00 0.00 0.00 83 1006.6
20260506031820 75 160 0.0 0.0 0.00 0.00 0.00 82 1008.9
20260506031604 75 156 0.0 0.0 0.00 0.00 0.00 82 1006.5
20260506031335 76 157 0.0 0.0 0.00 0.00 0.00 82 1008.9
20260506031032 75 136 0.0 0.0 0.00 0.00 0.00 82 1006.5
20260506030829 76 179 0.0 0.0 0.00 0.00 0.00 81 1008.8
20260506030553 75 179 0.0 0.0 0.00 0.00 0.00 81 1006.5
20260506030325 76 180 0.0 0.0 0.00 0.00 0.00 81 1008.8
20260506030050 76 180 0.0 0.0 0.00 0.00 0.00 81 1006.4
20260506025821 76 179 0.0 0.0 0.00 0.00 0.00 81 1008.8
20260506025544 76 180 0.0 0.0 0.00 0.00 0.00 80 1006.5
20260506025318 76 179 0.0 0.0 0.00 0.00 0.00 80 1008.8
20260506025036 76 179 0.0 0.0 0.00 0.00 0.00 80 1006.3
20260506024814 77 179 0.0 0.0 0.00 0.00 0.00 80 1008.6
20260506024529 76 166 0.0 0.0 0.00 0.00 0.00 80 1006.3
20260506024333 77 172 0.0 0.0 0.00 0.00 0.00 80 1008.5
20260506024012 76 191 0.0 0.0 0.00 0.00 0.00 80 1006.1
20260506023827 77 179 0.0 0.0 0.00 0.00 0.00 79 1008.5
20260506023503 76 190 0.0 0.0 0.00 0.00 0.00 79 1006.0
20260506023322 77 158 0.0 0.0 0.00 0.00 0.00 79 1008.3
20260506023057 76 189 0.0 0.0 0.00 0.00 0.00 79 1005.8
20260506022821 77 178 0.0 0.0 0.00 0.00 0.00 79 1008.1
20260506022548 77 178 0.0 0.0 0.00 0.00 0.00 78 1005.6
20260506022315 77 175 0.0 0.0 0.00 0.00 0.00 78 1008.0
20260506022038 77 175 0.0 0.0 0.00 0.00 0.00 78 1005.7
20260506021831 78 174 0.0 2.6 0.00 0.00 0.00 78 1008.1
20260506021528 77 154 0.0 5.2 0.00 0.00 0.00 78 1005.7
20260506021347 78 154 0.0 5.2 0.00 0.00 0.00 77 1008.1
20260506021055 77 154 0.9 5.2 0.00 0.00 0.00 77 1005.8
20260506020822 78 154 3.5 5.2 0.00 0.00 0.00 77 1008.1
20260506020544 78 143 2.6 4.3 0.00 0.00 0.00 76 1005.6
20260506020318 78 175 2.6 4.3 0.00 0.00 0.00 76 1007.9
20260506020106 78 175 2.6 4.3 0.00 0.00 0.00 76 1005.6
20260506015833 79 175 2.6 4.3 0.00 0.00 0.00 76 1008.0
20260506015528 78 174 2.6 4.3 0.00 0.00 0.00 76 1005.4
20260506015331 79 175 4.3 5.2 0.00 0.00 0.00 75 1007.7
20260506015013 79 183 0.0 0.0 0.00 0.00 0.00 75 1005.4
20260506014825 79 182 0.0 4.3 0.00 0.00 0.00 75 1007.6
20260506014507 79 178 0.0 6.1 0.00 0.00 0.00 75 1005.3
20260506014322 79 179 0.0 6.1 0.00 0.00 0.00 75 1007.6
20260506014100 79 168 1.7 7.0 0.00 0.00 0.00 74 1005.2
20260506013817 80 161 4.3 7.0 0.00 0.00 0.00 74 1007.6
20260506013552 79 174 3.5 7.0 0.00 0.00 0.00 74 1005.1
20260506013315 80 187 5.2 7.0 0.00 0.00 0.00 74 1007.4
20260506013042 79 162 0.0 4.3 0.00 0.00 0.00 74 1005.0
20260506012829 80 183 0.0 0.0 0.00 0.00 0.00 73 1007.4
20260506012536 80 199 0.0 0.0 0.00 0.00 0.00 73 1004.9
20260506012326 80 167 0.0 0.0 0.00 0.00 0.00 73 1007.3
20260506012031 80 181 0.0 0.0 0.00 0.00 0.00 73 1004.9
20260506011822 81 164 0.0 0.0 0.00 0.00 0.00 73 1007.3
20260506011527 80 181 0.0 0.0 0.00 0.00 0.00 72 1005.0
20260506011318 81 194 0.0 0.0 0.00 0.00 0.00 72 1007.4
20260506011016 80 168 0.0 0.0 0.00 0.00 0.00 72 1005.0
20260506010815 81 162 0.0 0.0 0.00 0.00 0.00 72 1007.4
20260506010602 81 174 0.0 0.0 0.00 0.00 0.00 71 1004.9
20260506010330 81 186 0.0 0.0 0.00 0.00 0.00 71 1007.4
20260506010054 81 182 0.0 0.0 0.00 0.00 0.00 71 1004.9
20260506005825 82 173 0.0 0.0 0.00 0.00 0.00 71 1007.4
20260506005548 81 167 0.0 0.0 0.00 0.00 0.00 70 1004.9
20260506005322 82 172 0.0 0.0 0.00 0.00 0.00 70 1007.1
20260506005039 82 164 0.0 0.0 0.00 0.00 0.00 70 1004.8
20260506004819 82 156 0.0 0.0 0.00 0.00 0.00 69 1007.1
20260506004541 82 166 0.0 0.0 0.00 0.00 0.00 69 1004.8
20260506004317 83 210 0.0 0.0 0.00 0.00 0.00 69 1007.0
20260506004034 82 178 0.0 0.0 0.00 0.00 0.00 68 1004.8
20260506003828 83 173 0.0 0.0 0.00 0.00 0.00 68 1007.0
20260506003512 83 216 0.0 0.0 0.00 0.00 0.00 68 1004.6
20260506003324 83 183 0.0 0.0 0.00 0.00 0.00 68 1007.0
20260506003004 83 164 0.0 0.0 0.00 0.00 0.00 68 1004.6
20260506002821 83 162 0.0 0.0 0.00 0.00 0.00 67 1007.0
20260506002558 83 210 0.0 0.0 0.00 0.00 0.00 67 1004.6
20260506002338 83 172 0.0 0.0 0.00 0.00 0.00 67 1007.1
20260506002028 83 193 0.0 0.0 0.00 0.00 0.00 67 1004.6
20260506001833 84 196 0.0 0.0 0.00 0.00 0.00 66 1006.9
20260506001512 84 177 0.0 0.0 0.00 0.00 0.00 67 1004.6
20260506001327 84 192 0.0 0.0 0.00 0.00 0.00 67 1006.9
20260506001004 84 166 0.0 0.0 0.00 0.00 0.00 66 1004.5
20260506000822 84 168 0.0 0.0 0.00 0.00 0.00 66 1006.9
20260506000601 84 170 0.0 0.0 0.00 0.00 0.00 66 1004.6
20260506000320 85 181 0.0 0.0 0.00 0.00 0.00 66 1007.1
20260506000118 84 162 0.0 0.0 0.00 0.00 0.00 66 1004.6
20260505235817 85 202 0.0 0.0 0.00 0.00 0.00 66 1007.1
20260505235546 84 178 0.0 0.0 0.00 0.00 0.00 66 1004.7
20260505235314 85 185 0.0 0.0 0.00 0.00 0.00 65 1007.0
20260505235041 84 210 0.0 0.0 0.00 0.00 0.00 66 1004.6
20260505234830 85 161 0.0 0.0 0.00 0.00 0.00 66 1006.9
20260505234532 84 168 0.0 0.0 0.00 0.00 0.00 66 1004.5
20260505234326 85 150 0.0 0.0 0.00 0.00 0.00 65 1007.0
20260505234026 84 155 0.0 0.0 0.00 0.00 0.00 65 1004.7
20260505233823 85 159 0.0 0.0 0.00 0.00 0.00 65 1007.1
20260505233506 84 195 0.0 0.0 0.00 0.00 0.00 64 1004.7
20260505233318 85 195 0.0 0.0 0.00 0.00 0.00 65 1007.0
20260505233058 85 166 0.0 0.0 0.00 0.00 0.00 64 1004.5
20260505232814 85 162 0.0 0.0 0.00 0.00 0.00 64 1006.9
20260505232548 85 207 0.0 0.0 0.00 0.00 0.00 63 1004.5
20260505232332 85 195 0.0 0.0 0.00 0.00 0.00 63 1006.9
20260505232040 85 206 0.0 0.0 0.00 0.00 0.00 63 1004.6
20260505231828 85 229 0.0 0.0 0.00 0.00 0.00 63 1006.9
20260505231534 85 200 0.0 0.0 0.00 0.00 0.00 62 1004.7
20260505231324 85 210 0.0 0.0 0.00 0.00 0.00 63 1007.1
20260505231028 85 193 0.0 0.0 0.00 0.00 0.00 62 1004.6
20260505230820 85 202 0.0 0.0 0.00 0.00 0.00 62 1006.9
20260505230517 85 191 0.0 0.0 0.00 0.00 0.00 62 1004.6
20260505230314 85 208 0.0 0.0 0.00 0.00 0.00 62 1006.9
20260505230016 85 181 0.0 0.0 0.00 0.00 0.00 62 1004.5
20260505225852 85 167 0.0 0.0 0.00 0.00 0.00 63 1006.9
20260505225540 85 223 0.0 0.0 0.00 0.00 0.00 62 1004.5
20260505225347 85 219 0.0 0.0 0.00 0.00 0.00 63 1006.8
20260505225002 85 223 0.0 0.0 0.00 0.00 0.00 62 1004.4
20260505224821 85 214 0.0 0.0 0.00 0.00 0.00 63 1006.8
20260505224543 85 204 0.0 0.0 0.00 0.00 0.00 63 1004.4
20260505224317 85 213 0.0 0.0 0.00 0.00 0.00 62 1006.8
20260505224018 85 166 0.0 0.0 0.00 0.00 0.00 62 1004.4
20260505223853 86 174 0.0 9.6 0.00 0.00 0.00 62 1006.7
20260505223549 85 183 0.0 10.4 0.00 0.00 0.00 61 1004.6
20260505223328 86 239 0.0 10.4 0.00 0.00 0.00 62 1006.9
20260505223041 85 234 7.8 10.4 0.00 0.00 0.00 61 1004.6
20260505222824 86 212 7.0 10.4 0.00 0.00 0.00 62 1006.9
20260505222537 85 217 4.3 8.7 0.00 0.00 0.00 62 1004.6
20260505222321 86 235 5.2 8.7 0.00 0.00 0.00 61 1006.9
20260505222024 85 240 4.3 9.6 0.00 0.00 0.00 61 1004.7
20260505221815 86 222 7.0 10.4 0.00 0.00 0.00 60 1006.9
20260505221508 85 212 5.2 10.4 0.00 0.00 0.00 62 1004.6
20260505221331 86 220 5.2 10.4 0.00 0.00 0.00 60 1006.8
20260505221101 86 202 5.2 9.6 0.00 0.00 0.00 61 1004.5
20260505220828 86 231 6.1 8.7 0.00 0.00 0.00 61 1006.9
20260505220555 86 215 4.3 8.7 0.00 0.00 0.00 61 1004.5
20260505220324 86 239 5.2 8.7 0.00 0.00 0.00 63 1006.9
20260505220104 86 203 5.2 9.6 0.00 0.00 0.00 62 1004.7
20260505215820 86 236 6.1 9.6 0.00 0.00 0.00 62 1006.9
20260505215539 85 210 4.3 7.8 0.00 0.00 0.00 63 1004.7
20260505215336 86 208 3.5 7.8 0.00 0.00 0.00 62 1006.8
20260505215003 85 165 6.1 11.3 0.00 0.00 0.00 62 1004.5
20260505214829 86 175 7.0 11.3 0.00 0.00 0.00 61 1006.8
20260505214605 85 214 6.1 11.3 0.00 0.00 0.00 62 1004.5
20260505214325 86 191 7.0 11.3 0.00 0.00 0.00 61 1006.9
20260505214048 85 206 6.1 8.7 0.00 0.00 0.00 61 1004.6
20260505213821 86 196 5.2 7.8 0.00 0.00 0.00 61 1006.8
20260505213541 85 218 2.6 7.8 0.00 0.00 0.00 63 1004.6
20260505213318 86 230 4.3 10.4 0.00 0.00 0.00 62 1007.0
20260505213034 85 225 6.1 10.4 0.00 0.00 0.00 62 1004.8
20260505212833 86 221 6.1 10.4 0.00 0.00 0.00 61 1007.1
20260505212518 85 170 5.2 12.2 0.00 0.00 0.00 63 1004.9
20260505212329 86 212 7.0 12.2 0.00 0.00 0.00 62 1007.2
20260505212010 85 193 7.0 12.2 0.00 0.00 0.00 62 1005.0
20260505211826 86 179 7.0 13.0 0.00 0.00 0.00 62 1007.3
20260505211502 85 184 3.5 8.7 0.00 0.00 0.00 63 1005.1
20260505211322 85 234 4.3 11.3 0.00 0.00 0.00 64 1007.4
20260505211059 85 207 3.5 11.3 0.00 0.00 0.00 63 1005.2
20260505210818 85 248 5.2 11.3 0.00 0.00 0.00 63 1007.6
20260505210545 85 239 4.3 10.4 0.00 0.00 0.00 63 1005.3
20260505210317 85 270 5.2 10.4 0.00 0.00 0.00 63 1007.6
20260505210044 85 199 7.0 10.4 0.00 0.00 0.00 62 1005.4
20260505205853 86 231 3.5 10.4 0.00 0.00 0.00 63 1007.6
20260505205504 85 228 0.0 0.0 0.00 0.00 0.00 64 1005.3
20260505205327 85 241 0.0 0.0 0.00 0.00 0.00 63 1007.7
20260505205058 85 220 0.0 0.0 0.00 0.00 0.00 64 1005.3
20260505204823 85 223 0.0 0.0 0.00 0.00 0.00 63 1007.7
20260505204559 85 219 0.0 0.0 0.00 0.00 0.00 64 1005.4
20260505204318 85 167 0.0 0.0 0.00 0.00 0.00 66 1007.6
20260505204041 84 171 0.0 0.0 0.00 0.00 0.00 64 1005.4
20260505203814 85 156 0.0 0.0 0.00 0.00 0.00 65 1007.7
20260505203534 84 201 0.0 0.0 0.00 0.00 0.00 64 1005.5
20260505203331 85 222 0.0 0.0 0.00 0.00 0.00 64 1007.8
20260505203029 84 199 0.0 0.0 0.00 0.00 0.00 65 1005.5
20260505202828 85 224 0.0 0.0 0.00 0.00 0.00 65 1007.8
20260505202512 84 226 0.0 0.0 0.00 0.00 0.00 65 1005.5
20260505202323 85 243 0.0 0.0 0.00 0.00 0.00 67 1007.9
20260505202005 84 233 0.0 0.0 0.00 0.00 0.00 66 1005.7
20260505201819 84 229 0.0 0.0 0.00 0.00 0.00 66 1008.1
20260505201600 84 187 0.0 0.0 0.00 0.00 0.00 66 1005.5
20260505201314 84 239 0.0 0.0 0.00 0.00 0.00 66 1007.9
20260505201051 84 233 0.0 0.0 0.00 0.00 0.00 66 1005.7
20260505200829 84 187 0.0 0.0 0.00 0.00 0.00 67 1008.0
20260505200543 84 206 0.0 0.0 0.00 0.00 0.00 66 1005.6
20260505200346 84 195 0.0 0.0 0.00 0.00 0.00 67 1007.8
20260505200008 84 240 0.0 0.0 0.00 0.00 0.00 68 1005.4
20260505195842 84 177 0.0 0.0 0.00 0.00 0.00 67 1007.8
20260505195537 84 210 0.0 0.0 0.00 0.00 0.00 68 1005.6
20260505195335 84 197 0.0 0.0 0.00 0.00 0.00 68 1008.0
20260505195101 83 247 0.0 0.0 0.00 0.00 0.00 70 1005.6
20260505194829 83 193 0.0 0.0 0.00 0.00 0.00 68 1008.1
20260505194554 83 201 0.0 0.0 0.00 0.00 0.00 68 1005.9
20260505194323 83 196 0.0 0.0 0.00 0.00 0.00 68 1008.1
20260505194032 83 172 0.0 0.0 0.00 0.00 0.00 69 1005.9
20260505193838 83 195 0.0 0.0 0.00 0.00 0.00 69 1008.1
20260505193550 82 212 0.0 0.0 0.00 0.00 0.00 69 1005.9
20260505193328 83 222 0.0 0.0 0.00 0.00 0.00 69 1008.2
20260505193013 83 245 0.0 0.0 0.00 0.00 0.00 70 1005.8
20260505192823 83 224 0.0 0.0 0.00 0.00 0.00 69 1008.0
20260505192505 82 168 0.0 0.0 0.00 0.00 0.00 69 1005.9
20260505192318 83 195 0.0 0.0 0.00 0.00 0.00 70 1008.1
20260505192037 82 228 0.0 0.0 0.00 0.00 0.00 69 1005.9
20260505191831 83 237 0.0 0.0 0.00 0.00 0.00 71 1008.2
20260505191534 82 238 0.0 0.0 0.00 0.00 0.00 70 1006.0
20260505191327 82 222 0.0 0.0 0.00 0.00 0.00 70 1008.3
20260505191025 82 218 0.0 0.0 0.00 0.00 0.00 71 1006.0
20260505190823 82 239 0.0 0.0 0.00 0.00 0.00 70 1008.2
20260505190507 82 244 0.0 0.0 0.00 0.00 0.00 71 1006.1
20260505190320 82 184 0.0 0.0 0.00 0.00 0.00 72 1008.4
20260505190114 81 220 0.0 0.0 0.00 0.00 0.00 73 1006.1
20260505185836 81 147 0.0 0.0 0.00 0.00 0.00 71 1008.5
20260505185531 81 189 0.0 0.0 0.00 0.00 0.00 72 1006.3
20260505185331 81 220 0.0 0.0 0.00 0.00 0.00 73 1008.6
20260505185015 80 217 0.0 0.0 0.00 0.00 0.00 73 1006.3
20260505184827 81 209 0.0 0.0 0.00 0.00 0.00 72 1008.7
20260505184547 80 227 0.0 0.0 0.00 0.00 0.00 72 1006.4
20260505184324 81 233 0.0 0.0 0.00 0.00 0.00 72 1008.7
20260505184040 81 258 0.0 0.0 0.00 0.00 0.00 73 1006.6
20260505183820 81 240 0.0 0.0 0.00 0.00 0.00 74 1008.9
20260505183531 80 256 0.0 0.0 0.00 0.00 0.00 74 1006.7
20260505183315 81 228 0.0 0.0 0.00 0.00 0.00 73 1008.9
20260505183024 80 195 0.0 0.0 0.00 0.00 0.00 73 1006.8
20260505182830 81 224 0.0 0.0 0.00 0.00 0.00 73 1009.1
20260505182505 80 231 0.0 0.0 0.00 0.00 0.00 73 1006.8
20260505182327 80 213 0.0 0.0 0.00 0.00 0.00 73 1009.1
20260505182037 80 213 0.0 0.0 0.00 0.00 0.00 74 1006.9
20260505181824 80 212 0.0 0.0 0.00 0.00 0.00 74 1009.2
20260505181532 79 240 0.0 0.0 0.00 0.00 0.00 74 1007.0
20260505181320 80 245 0.0 0.0 0.00 0.00 0.00 74 1009.2
20260505181021 79 222 0.0 0.0 0.00 0.00 0.00 74 1007.1
20260505180816 80 226 0.0 0.0 0.00 0.00 0.00 74 1009.2
20260505180514 79 185 0.0 0.0 0.00 0.00 0.00 74 1007.1
20260505180332 79 218 0.0 0.0 0.00 0.00 0.00 74 1009.4
20260505180106 79 212 0.0 0.0 0.00 0.00 0.00 75 1007.1
20260505175848 79 220 0.0 0.0 0.00 0.00 0.00 75 1009.4
20260505175528 79 227 0.0 0.0 0.00 0.00 0.00 76 1007.3
20260505175322 79 198 0.0 0.0 0.00 0.00 0.00 75 1009.5
20260505175021 78 204 0.0 0.0 0.00 0.00 0.00 76 1007.3
20260505174839 79 211 0.0 0.0 0.00 0.00 0.00 76 1009.5
20260505174547 78 222 0.0 0.0 0.00 0.00 0.00 75 1007.4
20260505174354 78 228 0.0 0.0 0.00 0.00 0.00 76 1009.6
20260505174013 78 195 0.0 0.0 0.00 0.00 0.00 76 1007.3
20260505173829 79 177 0.0 0.0 0.00 0.00 0.00 76 1009.6
20260505173506 78 218 0.0 0.0 0.00 0.00 0.00 76 1007.5
20260505173323 78 222 0.0 0.0 0.00 0.00 0.00 77 1009.6
20260505173057 77 222 0.0 0.0 0.00 0.00 0.00 77 1007.3
20260505172819 78 197 0.0 0.0 0.00 0.00 0.00 77 1009.6
20260505172549 77 217 0.0 0.0 0.00 0.00 0.00 77 1007.6
20260505172316 77 205 0.0 0.0 0.00 0.00 0.00 77 1009.8
20260505172043 77 210 0.0 0.0 0.00 0.00 0.00 77 1007.6
20260505171827 78 207 0.0 0.0 0.00 0.00 0.00 77 1009.8
20260505171541 77 224 0.0 0.0 0.00 0.00 0.00 76 1007.7
20260505171344 78 233 0.0 0.0 0.00 0.00 0.00 76 1009.9
20260505171101 77 304 0.0 0.0 0.00 0.00 0.00 77 1007.8
20260505170817 77 199 0.0 0.0 0.00 0.00 0.00 77 1010.0
20260505170553 77 218 0.0 0.0 0.00 0.00 0.00 78 1007.8
20260505170333 77 214 0.0 0.0 0.00 0.00 0.00 78 1009.9
20260505170048 76 222 0.0 0.0 0.00 0.00 0.00 78 1007.7
20260505165830 77 225 0.0 0.0 0.00 0.00 0.00 78 1009.7
20260505165541 76 197 0.0 0.0 0.00 0.00 0.00 78 1007.5
20260505165326 76 212 0.0 0.0 0.00 0.00 0.00 78 1009.6
20260505165028 76 228 0.0 0.0 0.00 0.00 0.00 78 1007.5
20260505164843 77 222 0.0 0.0 0.00 0.00 0.00 77 1009.6
20260505164554 76 208 0.0 0.0 0.00 0.00 0.00 78 1007.4
20260505164319 77 218 0.0 0.0 0.00 0.00 0.00 78 1009.6
20260505164046 76 240 0.0 0.0 0.00 0.00 0.00 79 1007.5
20260505163814 77 211 0.0 0.0 0.00 0.00 0.00 79 1009.6
20260505163538 76 197 0.0 0.0 0.00 0.00 0.00 79 1007.5
20260505163351 76 224 0.0 0.0 0.00 0.00 0.00 80 1009.7
20260505163009 75 225 0.0 0.0 0.00 0.00 0.00 79 1007.7
20260505162826 76 211 0.0 0.0 0.00 0.00 0.00 79 1009.7
20260505162559 75 229 0.0 0.0 0.00 0.00 0.00 80 1007.7
20260505162342 76 216 0.0 0.0 0.00 0.00 0.00 79 1009.8
20260505162033 75 199 0.0 0.0 0.00 0.00 0.00 80 1007.8
20260505161837 75 216 0.0 0.0 0.00 0.00 0.00 80 1010.0
20260505161600 75 234 0.0 0.0 0.00 0.00 0.00 80 1007.7
20260505161331 75 242 0.0 0.0 0.00 0.00 0.00 80 1009.9
20260505161053 75 245 0.0 0.0 0.00 0.00 0.00 80 1007.8
20260505160828 75 232 0.0 0.0 0.00 0.00 0.00 80 1009.9
20260505160545 75 234 0.0 0.0 0.00 0.00 0.00 80 1007.7
20260505160323 76 260 0.0 0.0 0.00 0.00 0.00 80 1010.0
20260505153339 75 212 0.0 0.0 0.00 0.00 0.00 81 1009.9
20260505153058 74 218 0.0 0.0 0.00 0.00 0.00 81 1007.8
20260505152832 75 216 0.0 0.0 0.00 0.00 0.00 81 1009.9
20260505152517 74 199 0.0 0.0 0.00 0.00 0.00 81 1007.8
20260505152327 74 218 0.0 0.0 0.00 0.00 0.00 81 1009.7
20260505152011 74 223 0.0 0.0 0.00 0.00 0.00 81 1007.6
20260505151844 74 227 0.0 0.0 0.00 0.00 0.00 81 1009.7
20260505151541 74 191 0.0 0.0 0.00 0.00 0.00 82 1007.6
20260505151318 74 207 0.0 0.0 0.00 0.00 0.00 82 1009.7
20260505151034 73 233 0.0 0.0 0.00 0.00 0.00 82 1007.5
20260505150816 74 228 0.0 0.0 0.00 0.00 0.00 81 1009.6
20260505150525 73 243 0.0 0.0 0.00 0.00 0.00 82 1007.6
20260505150331 74 196 0.0 0.0 0.00 0.00 0.00 81 1009.8
20260505140521 71 224 9.6 19.1 0.00 0.00 0.00 84 1007.5
20260505140322 72 222 10.4 19.1 0.00 0.00 0.00 84 1009.4